QPF
0.05 0.05 0.07 0.06 0.05 0.05 0.04 0.05 0.05 0.06 0.09 0.10 0.11 0.10 0.10 0.10 0.07 0.04 0.04 0.03 0.02 0.02 0.03 0.05 0.05 0.07 0.09 0.07 0.06 0.05 0.06 0.06 0.06 0.04 0.04 0.03 0.04 0.05 0.05 0.04 0.05 0.08 0.09
0.06 0.07 0.06 0.06 0.05 0.03 0.03 0.05 0.04 0.03 0.04 0.07 0.10 0.11 0.12 0.10 0.06 0.04 0.04 0.04 0.02 0.02 0.02 0.04 0.05 0.06 0.07 0.07 0.05 0.04 0.05 0.06 0.08 0.06 0.04 0.04 0.05 0.07 0.08 0.06 0.04 0.05 0.06
0.06 0.06 0.06 0.06 0.05 0.04 0.03 0.04 0.04 0.04 0.03 0.04 0.08 0.09 0.09 0.08 0.06 0.05 0.04 0.04 0.03 0.02 0.02 0.02 0.04 0.05 0.05 0.05 0.06 0.05 0.03 0.04 0.06 0.04 0.04 0.05 0.08 0.10 0.09 0.08 0.05 0.03 0.03
0.06 0.07 0.06 0.05 0.04 0.03 0.04 0.04 0.04 0.05 0.07 0.07 0.08 0.07 0.07 0.09 0.07 0.05 0.04 0.03 0.04 0.03 0.03 0.03 0.04 0.04 0.04 0.03 0.05 0.06 0.05 0.04 0.04 0.04 0.05 0.05 0.05 0.11 0.09 0.07 0.07 0.04 0.04
0.05 0.07 0.06 0.08 0.05 0.04 0.04 0.05 0.07 0.07 0.08 0.07 0.05 0.05 0.04 0.06 0.04 0.04 0.04 0.04 0.04 0.03 0.05 0.04 0.03 0.03 0.04 0.04 0.03 0.04 0.06 0.05 0.05 0.05 0.06 0.06 0.05 0.06 0.06 0.06 0.05 0.04 0.04
0.05 0.06 0.05 0.09 0.06 0.04 0.05 0.06 0.08 0.09 0.10 0.07 0.04 0.04 0.04 0.05 0.04 0.05 0.04 0.04 0.04 0.03 0.04 0.05 0.05 0.03 0.03 0.04 0.05 0.04 0.06 0.08 0.06 0.05 0.06 0.09 0.08 0.07 0.06 0.06 0.05 0.05 0.05
0.05 0.06 0.06 0.12 0.08 0.06 0.06 0.06 0.06 0.08 0.08 0.07 0.08 0.08 0.06 0.04 0.03 0.03 0.04 0.04 0.03 0.03 0.03 0.04 0.05 0.04 0.03 0.03 0.02 0.03 0.04 0.06 0.08 0.08 0.06 0.09 0.14 0.14 0.13 0.10 0.08 0.07 0.07
0.05 0.05 0.06 0.08 0.07 0.07 0.07 0.05 0.05 0.05 0.05 0.05 0.07 0.07 0.06 0.06 0.04 0.02 0.03 0.03 0.02 0.04 0.03 0.02 0.03 0.04 0.03 0.03 0.03 0.02 0.02 0.04 0.06 0.07 0.09 0.09 0.10 0.11 0.12 0.14 0.14 0.11 0.09
0.03 0.06 0.07 0.06 0.06 0.06 0.06 0.07 0.07 0.05 0.06 0.06 0.05 0.05 0.06 0.06 0.05 0.03 0.02 0.02 0.02 0.03 0.03 0.02 0.02 0.02 0.03 0.04 0.05 0.03 0.02 0.03 0.04 0.05 0.05 0.05 0.05 0.07 0.10 0.13 0.16 0.15 0.11
0.04 0.05 0.05 0.05 0.05 0.06 0.06 0.04 0.04 0.04 0.05 0.05 0.04 0.04 0.05 0.05 0.04 0.04 0.02 0.01 0.01 0.02 0.03 0.02 0.02 0.03 0.04 0.06 0.06 0.04 0.03 0.02 0.03 0.04 0.04 0.04 0.04 0.05 0.08 0.11 0.14 0.14 0.11
0.04 0.03 0.05 0.05 0.04 0.04 0.04 0.04 0.04 0.03 0.03 0.04 0.04 0.04 0.04 0.05 0.04 0.04 0.03 0.02 0.01 0.01 0.02 0.02 0.02 0.02 0.02 0.03 0.04 0.04 0.02 0.02 0.02 0.03 0.04 0.04 0.05 0.05 0.06 0.08 0.11 0.12 0.11
0.04 0.03 0.03 0.03 0.03 0.03 0.03 0.04 0.04 0.04 0.04 0.06 0.07 0.05 0.05 0.06 0.05 0.04 0.04 0.03 0.03 0.03 0.03 0.03 0.02 0.02 0.02 0.02 0.02 0.02 0.02 0.02 0.02 0.02 0.04 0.04 0.04 0.04 0.05 0.05 0.09 0.11 0.11
0.04 0.03 0.02 0.02 0.03 0.03 0.02 0.02 0.03 0.04 0.04 0.06 0.07 0.07 0.06 0.07 0.06 0.05 0.05 0.03 0.04 0.04 0.04 0.03 0.03 0.02 0.02 0.02 0.02 0.02 0.01 0.01 0.01 0.01 0.02 0.04 0.05 0.04 0.03 0.03 0.03 0.06 0.09
0.02 0.02 0.01 0.02 0.03 0.03 0.02 0.03 0.02 0.03 0.04 0.05 0.05 0.06 0.06 0.06 0.07 0.07 0.06 0.06 0.05 0.04 0.04 0.05 0.05 0.05 0.04 0.03 0.03 0.02 0.01 0.01 0.01 0.01 0.01 0.02 0.04 0.03 0.03 0.03 0.02 0.02 0.04
0.01 0.01 0.01 0.02 0.02 0.02 0.02 0.04 0.03 0.03 0.04 0.04 0.04 0.05 0.05 0.07 0.07 0.07 0.07 0.07 0.06 0.04 0.04 0.05 0.06 0.06 0.05 0.04 0.05 0.03 0.02 0.02 0.01 0.01 0.01 0.01 0.02 0.03 0.02 0.02 0.01 0.01 0.02
0.01 0.01 0.02 0.02 0.02 0.01 0.02 0.03 0.03 0.04 0.04 0.05 0.05 0.03 0.04 0.05 0.05 0.04 0.05 0.06 0.06 0.05 0.05 0.05 0.06 0.06 0.07 0.05 0.05 0.04 0.03 0.02 0.01 0.01 0.01 0.01 0.02 0.03 0.04 0.03 0.02 0.01 0.01
0.01 0.01 0.02 0.02 0.02 0.02 0.02 0.03 0.03 0.04 0.04 0.05 0.04 0.05 0.07 0.05 0.04 0.03 0.03 0.04 0.03 0.03 0.04 0.04 0.05 0.05 0.07 0.07 0.05 0.03 0.03 0.02 0.01 0.01 0.01 0.01 0.01 0.02 0.05 0.05 0.04 0.02 0.01
0.03 0.03 0.03 0.03 0.02 0.02 0.02 0.02 0.02 0.03 0.04 0.04 0.04 0.05 0.08 0.06 0.06 0.04 0.04 0.03 0.03 0.03 0.03 0.04 0.05 0.04 0.04 0.05 0.06 0.05 0.03 0.02 0.01 0.01 0.01 0.01 0.01 0.01 0.03 0.06 0.05 0.03 0.02
0.02 0.02 0.02 0.02 0.02 0.02 0.02 0.02 0.02 0.02 0.02 0.03 0.04 0.04 0.06 0.07 0.07 0.06 0.04 0.03 0.03 0.03 0.03 0.04 0.05 0.04 0.03 0.03 0.05 0.05 0.04 0.03 0.02 0.01 0.01 0.01 0.01 0.01 0.02 0.05 0.06 0.04 0.03
0.02 0.02 0.01 0.01 0.01 0.02 0.02 0.02 0.02 0.02 0.02 0.03 0.03 0.04 0.04 0.05 0.05 0.06 0.05 0.04 0.04 0.04 0.04 0.04 0.04 0.05 0.04 0.02 0.03 0.04 0.04 0.04 0.03 0.02 0.02 0.01 0.01 0.01 0.02 0.05 0.07 0.05 0.03
0.02 0.02 0.02 0.01 0.01 0.01 0.02 0.04 0.04 0.04 0.04 0.03 0.03 0.03 0.03 0.04 0.04 0.04 0.04 0.06 0.06 0.05 0.04 0.04 0.04 0.04 0.04 0.03 0.04 0.04 0.04 0.04 0.04 0.03 0.03 0.01 0.01 0.01 0.02 0.06 0.10 0.07 0.04
0.03 0.03 0.02 0.03 0.03 0.02 0.02 0.02 0.03 0.04 0.05 0.04 0.03 0.05 0.04 0.03 0.03 0.03 0.02 0.02 0.04 0.05 0.05 0.04 0.03 0.04 0.04 0.04 0.06 0.06 0.06 0.06 0.05 0.04 0.04 0.03 0.02 0.01 0.02 0.04 0.10 0.12 0.06
0.05 0.04 0.05 0.05 0.04 0.04 0.02 0.02 0.02 0.03 0.04 0.03 0.04 0.04 0.03 0.02 0.03 0.02 0.02 0.01 0.01 0.01 0.02 0.03 0.03 0.03 0.02 0.02 0.03 0.04 0.06 0.05 0.05 0.04 0.05 0.04 0.03 0.02 0.01 0.02 0.05 0.10 0.10
0.06 0.06 0.05 0.04 0.04 0.03 0.02 0.02 0.02 0.02 0.02 0.02 0.02 0.01 0.02 0.03 0.02 0.02 0.02 0.02 0.03 0.02 0.01 0.01 0.03 0.03 0.02 0.02 0.02 0.03 0.05 0.05 0.06 0.05 0.05 0.05 0.04 0.02 0.02 0.02 0.03 0.05 0.08
0.05 0.05 0.05 0.04 0.03 0.02 0.02 0.03 0.04 0.02 0.01 0.01 0.02 0.02 0.02 0.02 0.02 0.01 0.02 0.04 0.04 0.03 0.01 0.01 0.01 0.01 0.01 0.01 0.02 0.03 0.04 0.04 0.04 0.04 0.04 0.04 0.03 0.03 0.03 0.03 0.02 0.02 0.04
0.04 0.04 0.04 0.03 0.03 0.02 0.02 0.02 0.03 0.03 0.04 0.05 0.05 0.04 0.03 0.02 0.02 0.01 0.02 0.04 0.04 0.03 0.02 0.01 0.01 0.01 0.01 0.01 0.02 0.02 0.03 0.04 0.04 0.04 0.04 0.04 0.04 0.03 0.03 0.02 0.02 0.02 0.03
MSLP
1000.01 999.56 999.01 998.27 997.23 995.80 993.97 991.81 989.45 987.11 985.06 983.54 982.74 982.78 983.65 985.24 987.36 989.76 992.18 994.43 996.36 997.93 999.17 1000.17 1001.02 1001.82 1002.62 1003.46 1004.29 1005.07 1005.75 1006.30 1006.71 1007.02 1007.27 1007.53 1007.82 1008.16 1008.52 1008.85 1009.09 1009.18 1009.09
1000.22 999.75 999.22 998.54 997.62 996.38 994.81 992.95 990.93 988.94 987.19 985.91 985.26 985.32 986.09 987.48 989.30 991.35 993.40 995.30 996.92 998.25 999.32 1000.22 1001.02 1001.81 1002.62 1003.47 1004.31 1005.09 1005.76 1006.30 1006.70 1006.99 1007.23 1007.47 1007.75 1008.08 1008.43 1008.77 1009.02 1009.14 1009.10
1000.51 1000.02 999.52 998.93 998.16 997.15 995.89 994.41 992.81 991.23 989.86 988.88 988.40 988.50 989.17 990.31 991.78 993.41 995.02 996.49 997.74 998.77 999.62 1000.37 1001.10 1001.85 1002.66 1003.51 1004.36 1005.14 1005.80 1006.33 1006.71 1006.99 1007.22 1007.45 1007.72 1008.04 1008.39 1008.73 1009.01 1009.17 1009.20
1000.86 1000.37 999.89 999.38 998.76 997.99 997.04 995.94 994.75 993.60 992.63 991.95 991.66 991.81 992.38 993.28 994.41 995.61 996.78 997.81 998.69 999.41 1000.04 1000.63 1001.26 1001.97 1002.76 1003.60 1004.43 1005.20 1005.85 1006.36 1006.74 1007.01 1007.23 1007.46 1007.72 1008.03 1008.39 1008.73 1009.04 1009.25 1009.35
1001.28 1000.77 1000.31 999.85 999.35 998.77 998.08 997.31 996.49 995.72 995.09 994.70 994.59 994.79 995.28 995.98 996.80 997.65 998.42 999.09 999.64 1000.10 1000.52 1000.97 1001.51 1002.16 1002.91 1003.71 1004.52 1005.26 1005.89 1006.39 1006.75 1007.03 1007.26 1007.49 1007.75 1008.07 1008.42 1008.78 1009.10 1009.35 1009.52
1001.77 1001.24 1000.77 1000.34 999.91 999.45 998.95 998.41 997.87 997.38 997.02 996.84 996.87 997.12 997.55 998.11 998.71 999.29 999.79 1000.18 1000.49 1000.76 1001.03 1001.38 1001.84 1002.42 1003.11 1003.86 1004.62 1005.32 1005.91 1006.39 1006.76 1007.04 1007.29 1007.53 1007.81 1008.13 1008.48 1008.84 1009.18 1009.46 1009.68
1002.34 1001.79 1001.31 1000.88 1000.47 1000.06 999.65 999.24 998.86 998.54 998.35 998.31 998.43 998.71 999.10 999.57 1000.04 1000.45 1000.78 1001.02 1001.19 1001.35 1001.54 1001.82 1002.22 1002.74 1003.37 1004.05 1004.74 1005.38 1005.93 1006.39 1006.76 1007.06 1007.32 1007.59 1007.89 1008.22 1008.57 1008.92 1009.25 1009.54 1009.79
1002.99 1002.44 1001.95 1001.49 1001.07 1000.66 1000.27 999.89 999.56 999.32 999.19 999.20 999.35 999.63 1000.00 1000.41 1000.81 1001.15 1001.41 1001.59 1001.73 1001.86 1002.02 1002.27 1002.63 1003.10 1003.65 1004.26 1004.87 1005.44 1005.95 1006.39 1006.75 1007.07 1007.37 1007.67 1007.98 1008.32 1008.66 1008.99 1009.31 1009.59 1009.85
1003.73 1003.19 1002.69 1002.22 1001.77 1001.33 1000.90 1000.50 1000.15 999.89 999.74 999.73 999.85 1000.10 1000.43 1000.81 1001.18 1001.50 1001.76 1001.96 1002.12 1002.27 1002.45 1002.70 1003.04 1003.46 1003.95 1004.47 1005.00 1005.51 1005.98 1006.39 1006.76 1007.10 1007.43 1007.76 1008.09 1008.42 1008.75 1009.06 1009.34 1009.60 1009.85
1004.51 1004.00 1003.52 1003.05 1002.59 1002.12 1001.64 1001.19 1000.78 1000.44 1000.23 1000.14 1000.20 1000.38 1000.66 1000.99 1001.34 1001.67 1001.95 1002.19 1002.40 1002.60 1002.82 1003.08 1003.40 1003.78 1004.20 1004.66 1005.12 1005.57 1005.99 1006.39 1006.77 1007.14 1007.49 1007.85 1008.19 1008.52 1008.82 1009.10 1009.34 1009.56 1009.78
1005.28 1004.83 1004.39 1003.94 1003.49 1003.01 1002.51 1002.00 1001.53 1001.12 1000.82 1000.64 1000.59 1000.69 1000.89 1001.16 1001.47 1001.79 1002.09 1002.36 1002.61 1002.85 1003.10 1003.36 1003.67 1004.01 1004.39 1004.78 1005.18 1005.59 1005.99 1006.39 1006.78 1007.17 1007.55 1007.93 1008.28 1008.60 1008.88 1009.11 1009.31 1009.50 1009.68
1005.98 1005.59 1005.21 1004.82 1004.40 1003.94 1003.44 1002.93 1002.42 1001.95 1001.57 1001.30 1001.16 1001.14 1001.25 1001.44 1001.69 1001.97 1002.25 1002.52 1002.78 1003.03 1003.28 1003.54 1003.83 1004.14 1004.47 1004.82 1005.19 1005.57 1005.96 1006.36 1006.77 1007.18 1007.59 1007.98 1008.33 1008.64 1008.90 1009.10 1009.27 1009.41 1009.57
1006.55 1006.23 1005.92 1005.59 1005.23 1004.83 1004.37 1003.87 1003.37 1002.88 1002.45 1002.11 1001.89 1001.78 1001.78 1001.87 1002.03 1002.23 1002.45 1002.68 1002.91 1003.14 1003.37 1003.61 1003.87 1004.15 1004.45 1004.78 1005.12 1005.49 1005.88 1006.30 1006.72 1007.15 1007.58 1007.98 1008.33 1008.63 1008.87 1009.06 1009.19 1009.32 1009.45
1006.98 1006.72 1006.46 1006.20 1005.92 1005.58 1005.19 1004.75 1004.28 1003.82 1003.38 1003.01 1002.72 1002.53 1002.44 1002.43 1002.48 1002.59 1002.72 1002.88 1003.04 1003.21 1003.39 1003.60 1003.82 1004.07 1004.35 1004.66 1005.00 1005.37 1005.77 1006.19 1006.63 1007.07 1007.51 1007.91 1008.27 1008.57 1008.80 1008.97 1009.10 1009.22 1009.34
1007.28 1007.05 1006.84 1006.64 1006.42 1006.15 1005.84 1005.48 1005.08 1004.66 1004.26 1003.89 1003.58 1003.34 1003.17 1003.07 1003.03 1003.03 1003.06 1003.12 1003.19 1003.29 1003.41 1003.57 1003.75 1003.97 1004.23 1004.53 1004.86 1005.23 1005.63 1006.06 1006.50 1006.94 1007.37 1007.77 1008.13 1008.43 1008.66 1008.85 1008.98 1009.11 1009.23
1007.47 1007.26 1007.09 1006.92 1006.75 1006.55 1006.31 1006.03 1005.71 1005.37 1005.02 1004.68 1004.38 1004.12 1003.91 1003.75 1003.62 1003.53 1003.47 1003.43 1003.42 1003.44 1003.49 1003.59 1003.73 1003.92 1004.16 1004.44 1004.76 1005.12 1005.51 1005.92 1006.34 1006.77 1007.18 1007.56 1007.91 1008.20 1008.46 1008.66 1008.83 1008.98 1009.12
1007.62 1007.42 1007.26 1007.11 1006.97 1006.82 1006.65 1006.43 1006.19 1005.92 1005.63 1005.35 1005.09 1004.84 1004.62 1004.42 1004.25 1004.10 1003.96 1003.85 1003.76 1003.71 1003.70 1003.74 1003.84 1004.00 1004.21 1004.47 1004.76 1005.09 1005.45 1005.82 1006.19 1006.57 1006.93 1007.28 1007.61 1007.90 1008.17 1008.40 1008.61 1008.80 1008.98
1007.76 1007.57 1007.41 1007.28 1007.17 1007.05 1006.91 1006.75 1006.57 1006.36 1006.14 1005.92 1005.70 1005.49 1005.28 1005.09 1004.90 1004.71 1004.53 1004.37 1004.23 1004.13 1004.07 1004.07 1004.13 1004.25 1004.42 1004.64 1004.90 1005.18 1005.47 1005.77 1006.08 1006.38 1006.67 1006.96 1007.25 1007.53 1007.80 1008.07 1008.32 1008.57 1008.80
1007.92 1007.75 1007.60 1007.48 1007.38 1007.28 1007.17 1007.04 1006.90 1006.74 1006.58 1006.41 1006.24 1006.07 1005.90 1005.73 1005.54 1005.36 1005.17 1004.99 1004.82 1004.69 1004.60 1004.56 1004.59 1004.67 1004.80 1004.97 1005.17 1005.38 1005.59 1005.80 1006.01 1006.21 1006.41 1006.63 1006.85 1007.10 1007.37 1007.65 1007.95 1008.26 1008.55
1008.09 1007.94 1007.82 1007.72 1007.63 1007.54 1007.45 1007.34 1007.23 1007.10 1006.98 1006.85 1006.72 1006.59 1006.46 1006.32 1006.17 1006.01 1005.83 1005.66 1005.49 1005.34 1005.23 1005.17 1005.16 1005.21 1005.29 1005.41 1005.54 1005.67 1005.79 1005.90 1005.99 1006.08 1006.18 1006.29 1006.45 1006.64 1006.89 1007.18 1007.51 1007.86 1008.22
1008.23 1008.12 1008.04 1007.96 1007.90 1007.83 1007.74 1007.65 1007.55 1007.44 1007.33 1007.23 1007.13 1007.04 1006.95 1006.85 1006.74 1006.61 1006.46 1006.30 1006.14 1006.00 1005.88 1005.80 1005.77 1005.78 1005.82 1005.88 1005.94 1006.00 1006.03 1006.03 1006.02 1005.99 1005.98 1005.99 1006.05 1006.18 1006.39 1006.66 1007.01 1007.40 1007.80
1008.31 1008.25 1008.20 1008.16 1008.13 1008.07 1008.01 1007.92 1007.82 1007.72 1007.62 1007.53 1007.45 1007.39 1007.33 1007.26 1007.19 1007.09 1006.97 1006.84 1006.70 1006.56 1006.44 1006.35 1006.30 1006.27 1006.27 1006.29 1006.30 1006.28 1006.24 1006.16 1006.06 1005.93 1005.81 1005.73 1005.70 1005.75 1005.89 1006.14 1006.47 1006.86 1007.30
1008.30 1008.27 1008.27 1008.27 1008.26 1008.23 1008.18 1008.11 1008.01 1007.91 1007.81 1007.72 1007.66 1007.61 1007.57 1007.53 1007.48 1007.42 1007.33 1007.22 1007.09 1006.96 1006.84 1006.73 1006.65 1006.60 1006.57 1006.55 1006.52 1006.47 1006.38 1006.24 1006.07 1005.88 1005.68 1005.51 1005.40 1005.37 1005.45 1005.63 1005.92 1006.30 1006.74
1008.19 1008.19 1008.21 1008.24 1008.27 1008.26 1008.23 1008.17 1008.08 1007.98 1007.88 1007.79 1007.73 1007.69 1007.66 1007.65 1007.62 1007.58 1007.51 1007.41 1007.29 1007.15 1007.02 1006.89 1006.79 1006.71 1006.66 1006.61 1006.56 1006.49 1006.39 1006.24 1006.04 1005.82 1005.58 1005.36 1005.18 1005.08 1005.08 1005.19 1005.41 1005.74 1006.14
1008.02 1008.02 1008.06 1008.11 1008.15 1008.17 1008.15 1008.10 1008.02 1007.93 1007.83 1007.75 1007.69 1007.65 1007.64 1007.63 1007.62 1007.59 1007.52 1007.43 1007.30 1007.16 1007.00 1006.85 1006.72 1006.62 1006.54 1006.48 1006.42 1006.36 1006.27 1006.13 1005.96 1005.74 1005.50 1005.26 1005.05 1004.89 1004.82 1004.84 1004.98 1005.22 1005.55
1007.82 1007.81 1007.85 1007.91 1007.96 1007.99 1007.99 1007.96 1007.89 1007.80 1007.71 1007.63 1007.57 1007.54 1007.53 1007.54 1007.53 1007.50 1007.44 1007.34 1007.20 1007.03 1006.85 1006.66 1006.50 1006.36 1006.26 1006.19 1006.14 1006.10 1006.04 1005.95 1005.82 1005.65 1005.45 1005.22 1005.00 1004.81 1004.67 1004.62 1004.66 1004.80 1005.03
Thickness
5783 5783 5781 5780 5781 5780 5780 5779 5779 5779 5779 5780 5780 5779 5778 5777 5776 5775 5770 5765 5762 5760 5759 5757 5756 5754 5753 5751 5750 5748 5747 5746 5744 5743 5742 5741 5740 5740 5738 5737 5736 5734 5733
5782 5782 5781 5780 5781 5781 5781 5780 5780 5779 5780 5780 5780 5778 5777 5777 5775 5773 5772 5767 5763 5761 5759 5757 5756 5755 5753 5751 5750 5749 5747 5746 5745 5744 5743 5742 5741 5740 5739 5737 5736 5735 5733
5781 5781 5781 5781 5781 5781 5780 5780 5779 5780 5779 5780 5779 5778 5778 5776 5775 5773 5772 5770 5768 5763 5760 5758 5756 5754 5753 5751 5750 5749 5748 5746 5745 5744 5743 5742 5741 5740 5739 5738 5736 5735 5733
5781 5781 5782 5782 5781 5781 5781 5780 5780 5779 5778 5778 5778 5778 5778 5776 5774 5773 5772 5771 5769 5767 5763 5759 5756 5754 5753 5751 5750 5749 5748 5746 5745 5744 5743 5742 5741 5740 5740 5739 5736 5735 5734
5781 5782 5782 5780 5780 5781 5781 5782 5780 5778 5776 5776 5777 5777 5778 5776 5775 5775 5772 5771 5769 5767 5765 5760 5757 5755 5753 5751 5749 5748 5747 5746 5744 5743 5742 5742 5741 5740 5739 5738 5736 5735 5733
5781 5781 5781 5779 5780 5780 5779 5779 5776 5775 5775 5774 5776 5776 5776 5776 5776 5774 5772 5771 5769 5767 5765 5762 5759 5756 5753 5751 5749 5748 5747 5745 5744 5742 5742 5741 5740 5739 5738 5737 5736 5735 5733
5781 5780 5781 5778 5778 5778 5777 5778 5776 5774 5774 5774 5772 5770 5773 5775 5773 5771 5771 5769 5768 5766 5763 5761 5759 5757 5754 5750 5748 5747 5746 5744 5743 5741 5740 5739 5738 5737 5736 5735 5734 5734 5733
5781 5782 5778 5778 5777 5776 5775 5775 5773 5773 5773 5774 5770 5766 5764 5765 5767 5771 5769 5767 5766 5764 5763 5761 5757 5754 5754 5753 5749 5745 5744 5742 5741 5740 5739 5737 5736 5735 5734 5733 5733 5733 5731
5781 5779 5778 5778 5776 5777 5775 5773 5773 5771 5770 5771 5772 5767 5760 5758 5761 5765 5765 5764 5762 5761 5760 5759 5757 5754 5752 5751 5748 5744 5742 5740 5739 5738 5737 5736 5735 5733 5732 5732 5732 5731 5730
5780 5779 5778 5777 5776 5776 5774 5774 5775 5773 5769 5768 5769 5768 5766 5763 5756 5754 5759 5761 5759 5757 5757 5757 5756 5753 5751 5749 5745 5742 5740 5738 5737 5736 5735 5734 5733 5732 5731 5730 5730 5729 5727
5778 5778 5776 5775 5774 5775 5774 5772 5772 5771 5770 5768 5767 5765 5763 5760 5759 5753 5748 5752 5755 5755 5754 5753 5753 5751 5749 5747 5744 5741 5737 5735 5734 5733 5733 5732 5731 5730 5729 5728 5728 5727 5726
5778 5776 5775 5774 5773 5773 5771 5770 5769 5769 5767 5766 5765 5765 5761 5758 5755 5753 5749 5747 5748 5750 5751 5749 5749 5748 5746 5744 5742 5737 5734 5732 5731 5730 5730 5729 5729 5728 5727 5726 5725 5724 5723
5776 5774 5774 5772 5771 5770 5769 5768 5767 5766 5765 5762 5761 5761 5761 5759 5757 5753 5749 5747 5744 5746 5745 5746 5746 5744 5743 5740 5738 5734 5732 5730 5729 5727 5726 5726 5726 5725 5724 5724 5723 5722 5721
5776 5774 5772 5770 5769 5768 5768 5766 5766 5764 5762 5760 5760 5758 5757 5757 5755 5752 5748 5744 5739 5740 5740 5739 5741 5740 5738 5736 5734 5730 5730 5728 5726 5725 5724 5723 5723 5722 5721 5720 5720 5719 5718
5776 5773 5771 5769 5767 5765 5764 5763 5762 5760 5759 5758 5758 5756 5754 5754 5752 5751 5748 5744 5738 5732 5732 5733 5734 5735 5734 5732 5729 5729 5729 5726 5724 5722 5721 5720 5720 5719 5718 5717 5717 5716 5716
5771 5770 5768 5766 5764 5763 5761 5760 5759 5757 5755 5753 5752 5750 5748 5750 5748 5747 5745 5742 5739 5733 5729 5731 5730 5731 5729 5729 5725 5725 5725 5723 5722 5720 5719 5718 5717 5716 5715 5714 5714 5713 5713
5767 5766 5764 5763 5762 5760 5759 5756 5756 5754 5751 5749 5748 5746 5743 5742 5742 5741 5740 5737 5734 5731 5725 5726 5727 5726 5722 5721 5721 5721 5722 5722 5722 5718 5716 5714 5713 5712 5711 5711 5710 5709 5709
5764 5762 5761 5759 5759 5757 5755 5753 5751 5750 5747 5744 5742 5740 5738 5737 5734 5733 5732 5730 5728 5724 5721 5717 5719 5720 5717 5717 5716 5715 5718 5720 5719 5715 5713 5711 5709 5708 5707 5707 5706 5705 5705
5760 5759 5757 5755 5754 5752 5750 5749 5747 5745 5742 5740 5738 5734 5732 5730 5727 5726 5724 5724 5722 5721 5717 5714 5713 5714 5714 5713 5711 5711 5713 5713 5715 5713 5710 5708 5706 5705 5704 5703 5702 5701 5700
5756 5754 5753 5751 5749 5747 5745 5743 5741 5739 5736 5734 5732 5729 5726 5723 5721 5719 5718 5715 5715 5713 5711 5710 5709 5708 5707 5707 5705 5705 5705 5706 5707 5710 5707 5705 5703 5701 5700 5699 5698 5697 5695
5752 5749 5747 5745 5743 5742 5739 5736 5734 5733 5729 5727 5725 5723 5720 5716 5713 5711 5711 5709 5708 5706 5705 5704 5703 5702 5700 5698 5698 5699 5698 5699 5701 5702 5701 5702 5701 5699 5698 5695 5693 5691 5690
5745 5743 5740 5738 5737 5736 5731 5727 5725 5725 5723 5720 5717 5716 5714 5711 5707 5703 5701 5699 5698 5698 5697 5696 5696 5693 5691 5691 5691 5691 5691 5691 5690 5696 5693 5695 5697 5695 5695 5693 5690 5687 5684
5739 5736 5734 5731 5729 5725 5721 5718 5716 5717 5716 5713 5710 5708 5709 5708 5702 5700 5697 5693 5692 5689 5687 5688 5688 5686 5685 5685 5682 5683 5683 5683 5683 5687 5686 5687 5690 5688 5689 5689 5684 5681 5678
5733 5729 5726 5724 5721 5718 5713 5710 5708 5709 5709 5706 5703 5702 5700 5697 5696 5692 5692 5691 5689 5686 5683 5682 5681 5680 5679 5677 5675 5675 5675 5676 5678 5680 5679 5677 5681 5681 5684 5681 5677 5674 5672
5726 5723 5720 5718 5714 5710 5705 5703 5700 5703 5701 5698 5697 5695 5692 5690 5685 5682 5683 5683 5681 5680 5678 5675 5672 5671 5668 5667 5666 5667 5668 5668 5670 5673 5672 5669 5671 5672 5673 5674 5672 5668 5666
5719 5717 5714 5712 5709 5705 5699 5695 5692 5696 5694 5692 5690 5688 5683 5681 5677 5674 5675 5676 5673 5673 5673 5672 5667 5665 5664 5663 5660 5659 5660 5660 5662 5663 5665 5661 5662 5662 5662 5665 5666 5663 5660